Vertical_Velocity
0 -0 -0 -1 -1 -1 -1 -1 -2 -2 -2 -2 -2 -2 -2 -2 -2 -2 -2 -3 -3 -3 -3 -3 -3 -3 -3 -3 -3 -2 -2 -2 -2 -2 -1 -1 -0 0 0 0 0 0 -0 -1 -1 -1 -0 -0 0 0 1 1 1 1 0 -0 -0 -0 -0 -0 -1 -1 -1 -1 -1 -1 -1 -1 -1 -1 -1 -1 -2 -2 -2 -2 -2 -2 -2 -2 -2 -2 -2 -2 -2 -2 -2 -2 -2 -2 -1 -2 -2 -2 -1 -2 -2 -2 -1 -1 -2 -2 -2
1 0 0 -0 -1 -1 -2 -2 -2 -2 -2 -3 -2 -2 -2 -2 -3 -3 -3 -3 -3 -2 -2 -3 -3 -3 -2 -2 -2 -2 -2 -1 -1 -1 -1 -1 -0 0 0 1 0 0 -0 -1 -1 -1 -1 -1 -1 -1 -1 -1 -0 0 0 0 0 0 0 0 -0 -0 -0 -1 -1 -1 -1 -1 -1 -1 -1 -1 -1 -1 -1 -1 -1 -1 -1 -1 -1 -2 -2 -2 -2 -2 -2 -2 -2 -1 -1 -1 -2 -2 -2 -2 -2 -2 -2 -2 -2 -2 -2
1 0 -0 -1 -1 -2 -2 -3 -3 -3 -3 -3 -3 -3 -3 -3 -3 -3 -3 -3 -2 -2 -2 -2 -2 -2 -2 -2 -2 -1 -1 -1 -1 -1 -1 -1 -1 -1 -0 0 0 0 -1 -1 -1 -1 -1 -2 -2 -2 -2 -2 -1 -1 -0 -0 -0 0 0 0 0 0 0 -0 -0 -0 -1 -1 -1 -1 -1 -1 -1 -1 -1 -1 -1 -1 -1 -1 -1 -1 -1 -1 -1 -1 -1 -1 -1 -1 -1 -1 -1 -2 -2 -2 -1 -1 -1 -1 -2 -2 -2
0 -0 -1 -2 -2 -2 -3 -3 -3 -3 -3 -3 -3 -3 -3 -3 -3 -3 -2 -2 -2 -2 -2 -2 -2 -2 -2 -1 -1 -1 -1 -1 -1 -1 -1 -1 -1 -1 -1 -0 0 0 -0 -1 -2 -1 -1 -1 -2 -2 -2 -2 -1 -1 -1 -0 -0 -0 -0 0 0 0 -0 -0 0 0 0 0 -0 -0 -0 -0 0 0 0 -0 -0 -0 -0 -0 -0 -0 -0 -1 -1 -1 -1 -1 -1 -1 -0 -0 -1 -1 -1 -1 -1 -1 -1 -1 -1 -1 -2
-1 -1 -2 -2 -3 -3 -3 -3 -3 -4 -4 -3 -3 -3 -3 -2 -2 -2 -2 -2 -2 -2 -2 -2 -1 -1 -1 -1 -1 -1 -1 -1 -1 -1 -1 -1 -1 -1 -1 -1 -0 0 0 -1 -1 -1 -1 -1 -1 -2 -2 -2 -1 -1 -1 -1 -1 -1 -0 -0 -0 -0 -0 -0 -0 -0 0 0 0 0 0 0 0 0 0 0 0 -0 -0 0 0 0 -0 -0 -0 -0 -1 -1 -1 -0 -0 -0 -0 -0 -0 -1 -1 -1 -1 -1 -0 -1 -1
-1 -2 -2 -3 -3 -3 -4 -4 -3 -3 -3 -3 -2 -2 -2 -2 -2 -2 -2 -2 -2 -2 -2 -1 -1 -1 -1 -1 -2 -2 -2 -1 -2 -2 -2 -2 -1 -1 -1 -1 -0 0 0 -0 -1 -1 -1 -1 -1 -1 -1 -1 -1 -1 -1 -1 -1 -1 -1 -1 -1 -1 -1 -1 -1 -0 -0 -0 0 0 -0 -0 -0 -0 -0 -0 -0 -0 -0 -0 -0 -0 -0 0 0 0 -0 -1 -1 -0 -0 -0 -0 -0 0 -0 -0 -1 -1 -1 -1 -0 -0
-2 -3 -3 -3 -4 -4 -3 -3 -3 -3 -2 -2 -2 -2 -2 -2 -2 -2 -2 -2 -2 -2 -2 -2 -2 -2 -2 -2 -2 -2 -2 -2 -2 -2 -2 -2 -2 -1 -1 -1 -0 -0 0 -0 -0 -1 -1 -0 -0 -1 -1 -1 -1 -1 -1 -1 -1 -1 -1 -1 -1 -1 -1 -1 -1 -1 -1 -0 -0 -0 -1 -1 -1 -1 -1 -1 -1 -1 -1 -0 -0 -1 -1 -0 -0 0 -0 -0 -1 -1 -1 -1 -1 -0 -0 -0 -0 -0 -0 -1 -1 -1 -0
-3 -3 -3 -3 -3 -3 -3 -2 -2 -2 -2 -2 -2 -2 -3 -3 -3 -3 -2 -2 -2 -2 -2 -2 -2 -2 -2 -2 -2 -2 -2 -2 -2 -2 -3 -2 -2 -2 -1 -1 -0 -0 0 0 -0 -0 -1 -1 -1 -1 -1 -1 -1 -1 -1 -1 -1 -1 -1 -1 -1 -1 -2 -2 -1 -1 -1 -1 -1 -1 -1 -1 -1 -1 -1 -1 -1 -1 -1 -1 -1 -1 -1 -1 -1 -0 -0 -0 -1 -1 -1 -1 -1 -1 -1 -0 -0 -0 -0 -0 -0 -0 -0
-3 -3 -2 -2 -2 -2 -3 -3 -3 -3 -3 -3 -3 -3 -3 -3 -3 -3 -2 -2 -2 -2 -2 -2 -2 -2 -2 -2 -2 -2 -2 -2 -2 -3 -3 -3 -2 -2 -1 -1 -1 -0 -0 -0 -0 -0 -1 -1 -1 -1 -1 -1 -1 -1 -1 -1 -1 -1 -1 -1 -1 -1 -1 -1 -1 -1 -1 -1 -1 -1 -1 -1 -1 -1 -1 -1 -1 -1 -1 -1 -1 -1 -1 -1 -1 -1 -0 -0 -0 -1 -1 -1 -1 -1 -1 -1 -0 -0 0 0 0 0 -0
-2 -2 -2 -2 -2 -3 -3 -3 -3 -3 -2 -2 -2 -2 -3 -3 -2 -2 -2 -2 -2 -2 -2 -2 -2 -2 -2 -2 -2 -2 -2 -2 -2 -2 -3 -3 -2 -2 -2 -1 -1 -0 -0 -0 -1 -1 -1 -1 -1 -1 -1 -1 -1 -1 -1 -1 -1 -0 -0 -1 -1 -1 -1 -1 -1 -1 -1 -1 -1 -1 -1 -1 -1 -1 -1 -1 -1 -1 -1 -1 -1 -0 -0 -1 -1 -1 -0 -0 -0 -0 -1 -1 -1 -1 -1 -1 -1 -0 -0 -0 0 0 0
-3 -3 -3 -3 -3 -3 -3 -3 -2 -2 -2 -2 -2 -2 -2 -2 -2 -2 -2 -2 -2 -2 -2 -2 -2 -2 -3 -3 -2 -2 -2 -2 -2 -2 -2 -2 -2 -2 -2 -1 -1 -0 -0 -0 -1 -1 -1 -1 -1 -1 -1 -1 -1 -1 -1 -1 -1 -1 -1 -1 -1 -1 -1 -1 -1 -1 -1 -1 -1 -1 -1 -1 -1 -1 -1 -1 -1 -1 -1 -1 -1 -0 -0 -0 -1 -1 -1 -0 -0 -0 -0 -0 -0 -0 -1 -1 -1 -1 -0 -0 -0 -0 0
-3 -3 -3 -3 -3 -3 -2 -2 -2 -1 -2 -2 -2 -2 -2 -2 -2 -2 -2 -2 -2 -2 -2 -2 -2 -2 -2 -2 -2 -1 -1 -1 -1 -1 -1 -1 -2 -2 -2 -2 -1 -1 -1 -1 -1 -1 -1 -1 -1 -1 -2 -2 -2 -2 -2 -1 -1 -1 -1 -1 -1 -1 -1 -1 -1 -1 -1 -1 -1 -1 -1 -1 -1 -1 -1 -1 -1 -1 -1 -1 -1 -0 -0 -0 -0 -1 -1 -1 -1 -0 -0 -0 -0 -1 -0 -0 -0 -1 -1 -1 -0 -0 -0
-2 -2 -2 -2 -3 -3 -3 -3 -2 -2 -2 -1 -1 -1 -1 -1 -2 -2 -2 -1 -1 -1 -1 -1 -1 -1 -1 -1 -1 -1 -1 -1 -1 -1 -1 -1 -2 -2 -2 -2 -2 -2 -2 -2 -2 -2 -2 -1 -1 -1 -2 -1 -1 -1 -1 -1 -1 -1 -1 -1 -1 -1 -1 -1 -1 -1 -1 -1 -1 -1 -1 -1 -1 -1 -1 -1 -1 -1 -1 -1 -1 -1 -0 -0 -0 -0 -1 -1 -1 -0 -0 -0 -0 -1 -1 -0 -0 -0 -1 -0 -0 -0 -0
-2 -2 -2 -2 -2 -3 -2 -2 -2 -2 -1 -1 -1 -1 -1 -1 -1 -1 -1 -1 -1 -1 -1 -0 -0 0 0 0 -0 -0 -0 -1 -1 -1 -1 -1 -2 -2 -2 -2 -2 -2 -3 -3 -3 -3 -2 -2 -1 -1 -2 -1 -1 -1 -1 -1 -1 -1 -1 -1 -2 -2 -2 -1 -1 -1 -1 -1 -1 -1 -1 -1 -1 -1 -1 -1 -1 -1 -1 -1 -1 -1 -1 -1 -0 -0 -1 -1 -1 -1 -0 -0 -0 -0 -1 -1 -1 -1 -1 -0 -0 -0 -0
-2 -2 -2 -2 -2 -2 -2 -2 -2 -1 -1 -1 -1 -1 -1 -1 -1 -1 -1 -1 -1 -1 -0 0 0 0 0 0 -0 -0 -1 -1 -1 -1 -1 -1 -1 -1 -1 -2 -1 -1 -1 -2 -2 -2 -3 -2 -1 -1 -1 -1 -1 -1 -1 -1 -1 -1 -1 -1 -1 -1 -2 -1 -1 -1 -1 -1 -2 -2 -1 -1 -1 -1 -1 -1 -1 -1 -1 -1 -1 -1 -1 -1 -1 -1 -1 -1 -1 -1 -1 -0 -0 -0 -0 -1 -1 -1 -1 -1 -1 -0 -0
-2 -2 -2 -2 -2 -2 -2 -2 -2 -2 -1 -1 -1 -1 -1 -1 -1 -1 -1 -1 -1 -1 -0 -0 -0 -0 0 0 0 -0 -0 -1 -1 -1 -1 -1 -1 -1 -1 -1 -0 -0 -0 -1 -1 -1 -2 -2 -2 -1 -1 -1 -1 -1 -1 -1 -1 -1 -1 -1 -1 -1 -1 -1 -1 -1 -1 -1 -1 -2 -1 -1 -1 -1 -1 -1 -1 -1 -1 -1 -1 -1 -1 -1 -1 -1 -1 -0 -1 -1 -1 -1 -1 -0 -0 -0 -1 -1 -1 -1 -1 -1 -1
-2 -2 -2 -2 -2 -2 -2 -2 -2 -2 -1 -1 -1 -1 -1 -0 -0 -0 -0 -1 -1 -1 -1 -1 -0 -0 -0 -0 0 -0 -0 -0 -1 -1 -1 -1 -1 -1 -1 -0 -0 0 0 -0 -0 -1 -1 -1 -2 -2 -1 -1 -1 -1 -1 -1 -1 -1 -1 -1 -1 -0 -0 -0 -0 -1 -1 -1 -1 -1 -1 -1 -1 -1 -1 -1 -1 -1 -1 -1 -1 -1 -0 -0 -0 -0 -0 -0 -0 -1 -1 -1 -1 -1 -0 -0 -0 -0 -0 -0 -1 -1 -1
-2 -2 -2 -2 -2 -1 -1 -1 -1 -1 -1 -1 -1 -1 -0 -0 -0 -0 -0 -0 -0 -0 -0 -1 -1 -1 -1 -0 -0 -0 -0 -0 -0 -0 -0 -1 -1 -1 -1 -1 -0 0 0 0 -0 -1 -1 -1 -1 -1 -1 -1 -1 -1 -1 -1 -1 -1 -1 -1 -1 -1 -1 -0 -0 -0 -1 -1 -1 -1 -1 -1 -1 -1 -1 -1 -1 -1 -1 -1 -1 -1 -0 -0 -0 -0 -0 -0 -0 -0 -0 -1 -1 -1 -1 -0 -0 -0 -1 -0 -0 -0 -0
-1 -1 -1 -1 -1 -1 -1 -1 -1 -1 -0 -0 -0 -0 -0 -0 -0 0 0 0 0 0 -0 -1 -1 -1 -1 -1 -1 -0 -0 -0 -0 -0 -0 -0 -1 -1 -1 -1 -1 -0 0 0 0 -0 -1 -1 -1 -1 -1 -1 -1 -1 -0 -1 -1 -1 -1 -1 -1 -1 -1 -1 -1 -1 -1 -1 -1 -1 -1 -1 -1 -1 -1 -1 -2 -1 -1 -1 -1 -1 -1 -0 -0 -0 0 0 0 0 -0 -0 -1 -1 -1 -1 -1 -1 -1 -0 -0 -0 -0
-1 -1 -1 -1 -1 -1 -1 -1 -1 -0 -0 -0 -0 0 -0 0 0 0 1 1 1 0 -0 -0 -1 -1 -1 -1 -1 -1 -1 -0 0 0 0 -0 -1 -1 -1 -1 -1 -0 0 1 0 0 -0 -1 -1 -1 -1 -1 -1 -1 -1 -1 -1 -1 -1 -1 -1 -1 -1 -1 -1 -1 -1 -1 -1 -1 -1 -1 -1 -1 -1 -1 -1 -2 -2 -2 -1 -1 -1 -1 -0 -0 0 0 0 0 0 -0 -0 -1 -1 -1 -1 -1 -1 -1 -0 -0 -0
-1 -1 -1 -1 -1 -1 -1 -0 -0 -0 -0 -0 0 0 -0 0 0 0 0 0 0 0 0 -0 -1 -1 -1 -2 -2 -2 -1 -1 -1 -0 -0 -0 -1 -1 -1 -1 -1 -1 0 1 1 1 0 0 -0 -0 -1 -1 -1 -1 -1 -1 -1 -1 -1 -1 -1 -1 -1 -1 -1 -1 -1 -1 -1 -1 -1 -1 -1 -1 -0 0 -1 -1 -2 -2 -2 -1 -1 -1 -1 -0 -0 0 0 1 0 0 -0 -0 -1 -1 -1 -1 -1 -1 -1 -1 -0
-2 -1 -1 -1 -1 -0 -0 -0 -0 -0 -0 -0 -0 -0 -0 -0 -0 -0 -0 -0 -0 -0 -0 -0 -1 -1 -1 -1 -2 -2 -2 -2 -2 -2 -2 -2 -1 -1 -1 -1 -1 -1 -1 0 1 1 1 1 1 0 -0 -0 -1 -1 -1 -1 -1 -1 -1 -1 -1 -1 -1 -1 -1 -1 -1 -1 -1 -1 -1 -1 -1 -1 -0 0 0 -1 -2 -2 -2 -1 -1 -1 -1 -1 -1 -0 0 1 1 0 0 -0 -0 -1 -1 -1 -1 -1 -1 -1 -1
-1 -1 -1 -1 -1 -1 -1 -1 -0 -0 -0 -0 -1 -1 -1 -1 -1 -1 -1 -1 -1 -1 -0 -0 -0 -0 -0 -1 -1 -2 -2 -3 -3 -4 -4 -4 -3 -2 -2 -2 -2 -2 -2 -1 0 1 2 2 1 1 0 0 -0 -1 -1 -1 -1 -1 -1 -1 -1 -1 -1 -1 -1 -1 -1 -1 -1 -1 -1 -1 -1 -1 -1 -0 0 0 -0 -1 -2 -1 -1 -1 -1 -1 -1 -1 -0 0 0 0 0 0 -0 -1 -1 -1 -1 -1 -1 -1 -1
-1 -1 -1 -1 -1 -1 -1 -1 -1 -0 -0 -0 -0 -1 -1 -1 -1 -1 -1 -1 -1 -0 -0 0 0 0 1 0 0 -0 -1 -1 -2 -2 -3 -3 -3 -3 -2 -2 -2 -2 -3 -2 -1 0 1 2 2 1 1 1 0 0 -0 -0 -1 -1 -1 -1 -2 -2 -1 -1 -1 -0 -0 -1 -1 -1 -1 -1 -1 -1 -1 -1 -0 0 0 -0 -1 -1 -1 -1 -1 -1 -1 -1 -1 -0 -0 0 0 0 -0 -0 -1 -1 -1 -1 -1 -1 -1
-0 -0 0 -0 -0 -1 -1 -1 -1 -0 -0 0 0 0 -0 -0 -0 -0 -0 -0 -0 -0 -0 0 0 1 1 1 1 1 1 1 1 1 1 0 -0 -1 -1 -1 -1 -2 -2 -3 -2 -1 0 1 1 2 1 1 1 1 0 -0 -0 -1 -1 -2 -2 -2 -2 -1 -1 -1 -0 -1 -1 -1 -1 -1 -1 -1 -1 -1 -0 -0 0 0 -0 -1 -1 -1 -1 -1 -1 -1 -1 -1 -1 -1 -0 -0 -0 -0 -1 -1 -1 -1 -1 -1 -1
0 0 0 0 0 -0 -0 -1 -0 -0 0 0 1 1 0 0 0 0 1 0 0 -0 -0 -0 -0 -0 0 0 0 1 1 1 2 2 2 2 2 2 1 0 -0 -1 -1 -2 -2 -2 -1 -0 1 1 2 2 1 1 1 0 -0 -0 -1 -1 -2 -2 -2 -1 -1 -1 -1 -1 -1 -1 -1 -1 -1 -1 -1 -1 -0 -0 -0 0 0 -0 -0 -0 -0 -0 -0 -1 -1 -1 -2 -2 -1 -1 -1 -1 -1 -1 -1 -1 -1 -1 -1
0 0 1 1 0 0 -0 -0 -0 -0 0 1 1 1 1 0 0 0 1 1 -0 -1 -1 -1 -1 -1 -1 -1 -0 0 1 1 2 2 2 3 3 2 1 1 0 0 0 -1 -1 -2 -1 -1 -0 1 1 1 1 1 1 0 0 0 0 -0 -1 -1 -2 -1 -1 -1 -1 -1 -1 -1 -1 -1 -1 -1 -1 -1 -0 -0 0 0 0 0 0 0 -0 -0 0 0 -0 -0 -1 -1 -1 -1 -1 -1 -1 -1 -0 -0 -0 -0 -0
1 1 1 1 1 0 -0 -0 -0 -0 0 1 1 1 1 0 -0 -0 0 0 -1 -1 -1 -1 -1 -1 -1 -1 -1 -0 -0 0 1 1 1 1 1 1 0 0 0 0 0 -0 -1 -1 -1 -1 -1 -0 0 1 1 1 1 1 1 1 1 0 0 -0 -1 -1 -1 -1 -1 -1 -1 -1 -1 -0 -1 -1 -1 -1 -1 -0 0 0 0 0 0 0 0 0 0 1 1 1 0 -0 -1 -1 -2 -2 -2 -1 -1 -0 0 0 0
1 1 1 1 1 1 0 -0 -0 0 0 1 1 1 1 1 -0 -1 -0 -0 -0 -0 -0 -0 -0 0 0 0 -0 -0 -0 -0 -0 -0 -1 -1 -1 -1 -0 -0 -0 -0 -0 -0 -1 -1 -1 -1 -1 -1 -1 -0 1 1 2 2 2 1 1 1 1 0 0 0 -0 -0 -1 -1 -1 -1 -1 -1 -1 -1 -1 -1 -1 -1 -0 -0 0 0 0 0 0 1 1 1 1 1 2 1 0 -1 -1 -2 -2 -2 -1 -0 0 0 0
1 2 2 2 2 1 1 -0 -0 0 1 1 1 1 1 0 -0 -1 -1 0 0 1 1 1 1 1 1 1 1 0 1 0 0 -1 -1 -1 -1 -1 -1 -0 -0 -0 -0 -1 -1 -1 -2 -1 -1 -1 -1 -1 -0 1 2 2 2 2 2 1 1 1 1 0 0 -0 -1 -1 -1 -1 -1 -1 -1 -1 -1 -1 -1 -1 -0 -0 0 0 -0 -0 -0 0 0 0 1 1 2 2 1 0 -0 -1 -1 -1 -1 -1 -0 0 0
1 1 2 2 2 1 0 -1 -1 -0 1 1 2 1 1 1 0 -0 0 1 1 1 1 1 1 1 1 1 1 1 1 1 1 1 0 0 -0 -0 -0 -0 -0 -1 -1 -1 -1 -1 -1 -1 -1 -1 -1 -1 -1 -0 1 2 2 2 2 2 1 1 1 1 0 -0 -1 -1 -1 -1 -1 -1 -1 -1 -1 -1 -1 -1 -1 -0 -0 -0 -0 -0 -1 -1 -0 -0 -0 0 1 1 1 1 1 1 0 0 -1 -1 -1 -1 -0
0 1 2 3 3 2 1 -1 -2 -1 1 2 2 2 2 2 1 1 1 1 1 1 1 1 1 1 0 0 0 0 0 1 1 1 1 1 1 0 -0 -1 -1 -1 -1 -1 -1 -1 -2 -2 -2 -2 -1 -1 -1 -1 -0 0 1 2 2 1 1 1 1 1 0 0 -0 -1 -1 -1 -1 -1 -1 -1 -1 -1 -1 -1 -1 -0 -0 -0 -0 -1 -1 -1 -1 -1 -1 -1 -0 1 1 2 2 2 2 2 1 0 -0 -1 -1
-0 0 1 2 4 4 4 2 0 -1 1 2 3 3 3 2 2 1 1 1 1 0 0 0 0 -0 -0 -1 -1 -0 -0 -0 0 0 1 1 1 0 0 -0 -1 -1 -1 -1 -1 -2 -2 -2 -2 -2 -2 -2 -2 -2 -1 -1 -0 0 1 1 1 1 1 1 0 0 -0 -1 -1 -1 -1 -1 -1 -1 -1 -1 -1 -1 -1 -1 -1 -1 -0 -1 -1 -1 -1 -1 -1 -1 -1 -0 1 2 2 3 3 3 2 1 1 0 -0
0 0 1 2 3 5 6 5 3 1 1 2 3 3 3 3 2 2 1 1 0 -0 -0 -1 -1 -1 -1 -1 -1 -1 -1 -0 -0 0 0 0 0 0 0 0 0 -0 -1 -1 -1 -1 -2 -2 -2 -2 -2 -2 -2 -2 -2 -1 -1 -0 0 1 1 1 1 0 0 0 -0 -0 -0 -0 -0 -0 -1 -1 -1 -1 -1 -1 -1 -1 -1 -1 -1 -1 -1 -1 -0 -1 -1 -1 -1 -1 -1 0 1 1 2 3 3 2 2 2 1
1 1 1 2 3 4 5 5 3 2 1 2 2 2 3 2 2 1 1 0 -0 -1 -1 -1 -1 -1 -1 -1 -1 -1 -1 -0 -0 0 0 -0 0 0 0 1 1 1 0 -0 -1 -1 -1 -1 -1 -1 -1 -1 -1 -1 -1 -1 -1 -0 0 1 1 1 1 0 -0 -0 -0 -0 -0 -0 -0 -0 -0 -0 -0 -0 -0 0 -0 -1 -1 -1 -1 -1 -1 -0 1 1 0 -1 -1 -1 -2 -1 -1 -0 1 2 2 3 3 3 3
1 1 1 2 3 3 3 3 3 2 1 1 1 1 1 1 1 1 1 0 -0 -1 -1 -1 -1 -1 -1 -1 -1 -1 -1 -0 -0 0 0 0 -0 -0 0 0 1 1 1 0 0 0 -0 -0 -1 -1 -1 -1 -1 -0 -0 -1 -1 -0 -0 0 1 1 0 -0 -1 -1 -1 -1 -0 0 0 0 0 0 0 0 0 1 1 -0 -1 -1 -1 -1 -1 -1 0 1 0 -0 -1 -1 -2 -2 -2 -2 -1 -0 1 2 2 2 3
0 0 0 1 2 2 2 2 2 2 1 1 1 1 1 0 1 1 1 0 -0 -1 -1 -1 -1 -1 -1 -1 -1 -1 -0 -0 -0 -0 0 0 -0 -0 -0 -0 -0 0 1 1 1 1 1 0 0 -0 -1 -1 -1 -0 -0 -0 -0 -0 -0 -0 0 0 0 -0 -1 -1 -1 -1 -1 -0 0 0 1 1 1 1 1 1 2 1 0 -0 -1 -1 -1 -1 -1 0 0 -0 -0 0 -0 -1 -2 -2 -1 -1 -1 -1 -0 0 1
-0 -0 0 1 1 2 2 1 1 1 1 0 0 0 0 0 0 1 1 1 0 -0 -0 -1 -1 -1 -1 -1 -0 -0 -0 -0 0 0 0 -0 -0 -1 -1 -1 -1 -0 0 0 1 1 1 1 0 0 -0 -1 -1 -1 -1 -1 -1 -1 -1 -1 -0 -0 -0 -0 -0 -1 -1 -1 -1 -1 -0 0 1 1 1 1 1 1 1 1 1 0 -0 -1 -1 -1 -1 -1 -1 -1 -1 0 1 1 -0 -1 -1 -2 -3 -3 -2 -2 -1
-0 -0 -0 1 1 2 1 1 1 1 1 1 1 0 0 0 0 1 1 1 0 0 0 -0 -1 -1 -1 -0 -0 -0 -0 0 0 0 0 -0 -1 -1 -1 -1 -1 -0 -0 0 0 1 1 1 0 0 -0 -1 -1 -1 -1 -1 -1 -1 -1 -1 -1 -1 -1 -0 0 0 -0 -1 -1 -1 -1 -1 -0 0 0 0 1 1 1 1 1 1 0 -0 -1 -1 -1 -1 -1 -1 -1 -1 -1 -1 -1 -2 -2 -3 -4 -4 -4 -4 -2
0 0 0 1 1 1 1 1 1 1 1 1 1 1 0 0 0 0 1 1 0 0 0 -0 -0 -1 -0 -0 -0 -0 -1 -0 0 0 0 0 -0 -1 -1 -1 -0 -0 -0 0 0 0 0 0 -0 -0 -1 -1 -1 -1 -1 -1 -1 -1 -1 -0 -0 -1 -1 -0 0 0 0 0 -0 -0 -1 -1 -1 -1 -1 -1 -0 0 1 1 1 1 1 0 0 -0 -1 -1 -1 -1 -1 -1 -1 -1 -1 -1 -1 -2 -2 -3 -4 -4 -4
1 1 1 1 2 1 1 1 1 1 1 1 1 1 1 0 0 0 1 1 0 -0 -0 0 -0 -0 -1 -0 0 -0 -1 -1 -0 0 0 1 0 0 -1 -0 -0 0 -0 -0 -1 -1 -1 -1 -1 -1 -1 -1 -1 -1 -2 -1 -1 -0 -0 0 0 0 -0 -0 -0 0 0 0 0 0 -0 -1 -1 -1 -1 -1 -1 -1 -0 -0 0 0 0 0 0 0 0 -0 -0 -1 -1 -1 -1 -0 -0 -0 -0 -0 -0 -1 -2 -3 -3
1 1 1 1 2 2 2 1 1 2 1 1 1 1 1 1 0 1 1 1 0 -0 -0 -0 0 0 -0 -0 -0 -0 -1 -1 -0 0 1 1 1 1 0 0 0 0 -0 -1 -1 -1 -1 -1 -1 -1 -1 -1 -1 -1 -1 -1 -1 -0 0 1 1 1 0 -0 -1 -1 -0 -0 -0 -0 -0 -0 -1 -1 -1 -1 -1 -1 -1 -1 -1 -0 0 0 0 0 0 0 -0 -0 -0 -0 -0 -0 0 0 0 0 0 -0 -0 -1 -1
2 2 2 1 1 1 2 2 2 2 2 1 1 1 2 1 1 1 2 1 1 0 -0 -0 0 0 -0 -0 -0 -0 -0 -1 -1 0 1 1 2 2 2 1 1 1 0 -1 -1 -2 -2 -2 -2 -2 -1 -1 -1 -1 -1 -1 -1 -0 0 1 1 1 0 -0 -1 -1 -1 -0 -0 -0 0 0 0 0 0 -0 -0 -1 -1 -1 -1 -1 -0 0 0 0 0 0 0 -0 -0 0 0 0 0 0 0 0 -0 -0 -1 -1 -1
2 2 2 1 1 1 2 2 2 2 2 1 1 1 1 1 1 1 2 2 1 1 0 0 0 0 0 -0 -0 -0 -0 -1 -1 -0 1 2 2 2 2 2 2 1 1 -0 -1 -2 -2 -2 -2 -2 -2 -1 -1 -1 -1 -1 -0 -0 0 1 1 0 0 -0 -0 -0 -0 -0 0 0 0 1 1 1 1 1 0 -1 -1 -1 -1 -0 -0 0 0 0 0 0 0 0 0 0 0 0 0 0 0 0 -0 -0 -1 -1 -1
2 2 2 2 1 2 1 2 2 2 2 1 1 1 1 1 1 1 1 1 2 1 1 1 1 1 1 1 0 0 -0 -0 -0 -0 1 1 2 2 2 1 1 1 0 -0 -1 -1 -2 -2 -2 -2 -2 -1 -0 0 0 0 -0 0 0 0 0 0 -0 -0 -0 -0 0 0 0 0 0 1 1 1 1 0 -0 -1 -1 -1 -0 -0 0 0 0 0 0 0 0 0 0 0 0 0 0 0 0 0 -0 -0 -1 -1 -1
2 2 2 2 2 2 1 1 2 2 1 1 1 1 1 1 1 1 1 1 1 2 2 1 1 1 1 1 1 1 -0 -0 -0 -0 0 1 1 1 0 0 -0 -0 -0 -1 -1 -1 -1 -1 -1 -1 -1 -1 -0 0 1 1 0 0 0 0 0 -0 -0 -1 -1 -0 0 0 1 0 0 0 0 0 0 -0 -0 -1 -1 -0 -0 0 0 0 0 0 0 0 0 0 0 0 0 0 0 0 0 -0 -0 -0 -1 -1 -1
1 2 2 2 2 2 1 1 1 1 1 1 2 2 2 1 1 0 0 1 1 1 2 1 1 1 1 1 1 1 0 -1 -1 -1 -1 0 1 1 -0 -1 -1 -1 -1 -1 -2 -1 -1 -1 -1 -1 -1 -1 -0 -0 0 1 1 0 0 -0 -0 -0 -0 -1 -1 -0 0 0 1 0 0 0 0 0 -0 -1 -1 -1 -1 -0 -0 -0 0 0 0 0 0 -0 -0 -0 0 0 0 0 0 0 -0 -0 -0 -1 -1 -1 -1
1 2 2 2 2 2 1 1 1 1 1 2 2 3 2 1 0 -0 -0 0 1 1 1 2 2 2 1 1 1 0 -0 -1 -1 -1 -1 -1 -0 0 0 -0 -1 -1 -1 -1 -1 -1 -1 -1 -1 -1 -1 -1 -1 -0 0 0 1 1 0 -0 -0 -0 -0 -1 -0 -0 0 0 0 0 -0 -0 -0 0 -0 -0 -1 -1 -1 -0 -0 -0 -0 0 0 -0 -0 -0 -0 -0 -0 -0 0 0 0 -0 -0 -1 -1 -1 -1 -1 -1
2 2 2 2 2 2 1 1 1 1 1 2 3 3 2 -0 -1 -1 -1 0 1 1 1 2 2 2 2 2 1 1 0 -1 -2 -2 -1 -0 -1 -1 -0 0 1 0 -0 -0 -1 -1 -1 -1 -0 -0 -1 -1 -1 -1 -1 -0 0 1 0 0 -0 -1 -1 -0 -0 0 1 0 0 0 -0 -0 -0 0 0 0 -0 -0 -1 -1 -0 0 0 0 -0 -0 -1 -1 -1 -0 -0 -0 -0 -0 -0 -0 -1 -1 -1 -1 -1 -1 -1
2 2 2 2 2 2 1 1 1 1 2 2 3 2 0 -1 -1 -1 -0 1 1 1 1 1 1 2 3 2 2 1 1 -1 -1 -2 -2 -1 -0 -0 -1 -1 1 2 2 1 1 1 1 0 0 -0 -0 -1 -1 -1 -1 -1 0 1 1 0 -0 -1 -1 -1 -0 1 1 1 0 0 0 0 0 0 1 1 0 0 -0 -1 -1 0 1 1 0 -1 -1 -1 -1 -0 -0 -0 0 -0 -0 -0 -1 -1 -1 -1 -1 -1 -1
3 3 2 2 2 2 1 1 1 1 2 2 2 1 0 -1 -1 -1 0 1 1 0 1 0 0 1 2 3 2 2 2 0 -0 -1 -1 -2 -1 1 0 -1 -0 2 3 3 3 3 3 2 1 0 0 -0 -1 -1 -1 -1 -0 0 1 1 0 -0 -1 -1 -0 0 1 1 1 1 1 0 1 1 1 1 1 1 0 -1 -1 -0 1 1 0 -0 -1 -0 -0 -0 0 0 0 0 0 -0 -0 -1 -1 -1 -1 -1 -1
3 3 2 2 2 1 1 1 1 1 2 2 2 1 -0 -1 -1 -0 0 1 0 -0 0 1 0 -0 0 2 2 2 1 0 -1 -1 0 -1 -1 -1 1 -1 -2 -2 -1 1 2 3 5 3 2 1 1 0 -0 -1 -1 -1 -0 -0 1 1 0 -1 -1 -1 -0 0 1 1 1 1 1 1 1 1 1 1 1 1 1 0 -0 -1 -0 -0 -0 -0 -0 -0 0 0 1 1 1 0 0 0 0 -0 -0 -0 -1 -1 -1
3 2 2 2 2 1 1 1 1 1 1 2 2 1 0 -0 -0 0 1 1 0 -0 -0 0 1 0 -1 0 2 2 0 -0 -1 -1 -0 -0 -2 -3 -2 0 -1 -2 -3 -3 -3 -1 5 5 3 1 2 1 0 -1 -1 -1 -1 -1 -0 0 -0 -1 -2 -1 -1 0 0 1 1 2 2 2 2 1 1 1 1 1 2 1 0 -0 -1 -1 -1 -0 -0 0 1 1 1 1 1 1 0 0 0 0 -0 -0 -0 -0 -1
2 2 2 2 1 1 1 1 1 1 1 1 1 1 0 0 0 1 1 1 0 0 0 0 1 1 0 1 2 3 1 -1 -1 -1 -1 -0 -0 -2 -4 -2 -0 0 -1 -0 -3 -5 -3 2 3 1 -0 1 0 -1 -2 -0 -1 -1 -1 -0 -1 -1 -2 -2 -1 0 1 1 2 2 3 2 2 1 1 1 1 2 2 1 0 -0 -1 -1 -1 -1 -0 0 1 1 1 1 1 0 0 0 0 0 0 -0 -0 -0 -1
2 2 2 2 1 1 1 1 1 1 1 1 1 1 0 1 1 1 0 0 0 1 1 1 0 1 1 1 2 3 3 1 0 0 0 -1 -0 0 -1 -3 -4 -4 -4 -2 -2 -3 -7 -5 -1 1 0 1 0 -1 -2 -0 0 -0 -1 -0 -0 -1 -1 -1 -1 0 1 2 2 3 3 2 2 1 1 1 1 1 1 1 0 -1 -1 -1 -1 -1 -0 0 0 1 1 0 0 -0 -0 -0 0 0 0 0 -0 -0 -1
2 1 2 2 2 2 2 1 1 1 1 1 1 1 1 0 0 -0 -1 -0 0 1 1 1 0 -0 1 1 2 2 3 3 2 2 1 -1 -2 -1 1 0 -1 -4 -7 -7 -6 -4 -4 -4 -4 -4 -2 3 3 1 -2 -1 0 1 -0 -0 -0 -1 -1 -1 -0 1 1 2 2 3 3 3 2 1 1 0 1 1 1 0 -0 -1 -1 -1 -1 -1 -0 -0 0 0 -0 -1 -1 -1 -1 -0 0 1 0 0 -0 -0 -0
1 1 1 2 2 2 2 1 1 1 1 1 1 1 0 -0 -1 -1 -1 -0 0 1 0 0 -0 -1 0 1 1 1 2 3 3 3 1 0 -1 -2 -1 1 2 2 1 -1 -3 -4 -5 -2 -1 -2 -7 -2 2 4 0 -1 -1 0 0 -1 -1 -1 -1 -1 -0 1 1 1 2 2 3 3 3 2 1 1 1 1 1 0 -0 -1 -1 -1 -1 -1 -1 -1 -1 -1 -1 -1 -1 -1 -1 0 0 1 0 0 -0 -0 -0
1 1 1 1 1 1 1 1 1 1 1 1 1 1 -0 -1 -1 -1 -0 0 0 -0 -1 -1 -1 -0 0 -0 -1 -1 -0 3 4 3 1 1 1 0 -0 -1 -1 0 2 2 2 0 -3 -4 -1 0 -2 -5 -3 2 5 1 -1 -2 -2 -2 -1 -1 -2 -2 -1 -0 0 1 1 2 2 3 3 3 3 2 1 1 1 0 0 -0 -1 -1 -1 -1 -1 -1 -1 -1 -1 -1 -1 -1 -0 0 0 0 0 -0 -0 -0 -0
0 1 1 1 1 1 1 1 1 1 1 1 1 0 -0 -0 0 0 1 0 -0 -1 -2 -2 -1 -1 -0 -1 -2 -3 -2 1 3 3 1 1 1 2 2 0 -2 -3 -3 -2 -0 1 1 -1 -3 -2 0 -3 -5 -4 2 3 1 -1 -4 -4 -2 -1 -2 -3 -3 -2 -1 -0 1 1 1 2 3 3 3 3 2 2 1 1 1 1 0 -0 -1 -1 -1 -1 -1 -1 -1 -1 -1 -1 -1 -0 -0 -0 -0 -0 -0 -0 0
0 0 1 1 1 1 1 1 1 1 1 1 0 0 0 1 1 1 1 0 -0 -1 -2 -2 -2 -1 -1 -2 -3 -3 -3 -1 1 2 2 1 0 1 4 2 -0 -2 -2 -2 -2 -1 1 1 1 -0 -1 -2 -3 -4 -3 -0 1 1 -2 -3 -2 -1 -2 -3 -2 -2 -2 -2 -1 -1 -0 1 2 2 3 2 2 2 2 2 2 2 1 0 -0 -1 -1 -1 -1 -1 -1 -1 -1 -1 -1 -1 -1 -1 -1 -1 -0 -0 0
0 1 1 1 1 2 2 1 1 1 1 0 0 0 1 2 2 1 1 0 -0 -1 -2 -2 -2 -2 -2 -2 -2 -3 -3 -3 -1 0 2 1 -0 -1 1 2 1 -1 -2 -2 -2 -1 0 0 1 2 1 -1 -1 -1 -1 -1 -1 -1 -2 -1 0 0 -2 -3 -2 -2 -3 -3 -2 -2 -1 -1 0 1 2 2 2 2 2 2 3 2 2 1 0 -0 -1 -0 -0 -1 -1 -2 -2 -2 -1 -1 -1 -1 -1 -1 -1 -0 0
Height
3198 3198 3199 3199 3200 3200 3200 3201 3201 3201 3202 3202 3202 3202 3203 3203 3203 3203 3203 3203 3203 3203 3203 3203 3202 3202 3202 3202 3202 3202 3202 3202 3202 3202 3202 3202 3202 3202 3201 3201 3201 3200 3200 3200 3200 3199 3199 3199 3199 3199 3199 3199 3199 3198 3198 3198 3197 3197 3196 3196 3195 3195 3194 3194 3193 3193 3193 3192 3192 3191 3191 3190 3190 3189 3189 3188 3188 3188 3187 3187 3186 3186 3185 3185 3184 3184 3183 3183 3183 3182 3182 3181 3181 3180 3180 3179 3179 3178 3178 3177 3177 3176 3176
3199 3199 3199 3200 3200 3200 3201 3201 3201 3202 3202 3202 3203 3203 3203 3203 3203 3203 3203 3203 3203 3203 3203 3203 3203 3203 3203 3203 3202 3202 3202 3202 3202 3202 3202 3202 3202 3202 3202 3202 3201 3201 3201 3201 3200 3200 3200 3200 3200 3200 3200 3199 3199 3199 3198 3198 3198 3197 3197 3196 3196 3195 3195 3194 3194 3193 3193 3192 3192 3192 3191 3191 3190 3190 3189 3189 3188 3188 3187 3187 3186 3186 3185 3185 3184 3184 3183 3183 3183 3182 3182 3181 3181 3180 3180 3179 3179 3178 3178 3177 3177 3176 3176
3199 3200 3200 3200 3201 3201 3201 3202 3202 3202 3203 3203 3203 3203 3203 3203 3203 3203 3203 3203 3203 3203 3203 3203 3203 3203 3203 3203 3203 3203 3203 3203 3203 3203 3203 3203 3203 3203 3203 3202 3202 3202 3201 3201 3201 3201 3200 3200 3200 3200 3200 3199 3199 3199 3199 3198 3198 3198 3197 3197 3196 3196 3195 3195 3194 3193 3193 3193 3192 3192 3191 3191 3190 3190 3189 3189 3188 3188 3188 3187 3187 3186 3186 3185 3185 3184 3183 3183 3183 3182 3182 3181 3181 3180 3180 3179 3179 3178 3178 3178 3177 3176 3176
3200 3200 3201 3201 3201 3202 3202 3202 3203 3203 3203 3203 3203 3204 3204 3204 3204 3204 3204 3204 3204 3204 3204 3204 3204 3204 3203 3203 3203 3203 3203 3203 3203 3203 3203 3203 3203 3203 3203 3203 3203 3202 3202 3202 3201 3201 3201 3200 3200 3200 3200 3199 3199 3199 3199 3198 3198 3198 3197 3197 3196 3196 3195 3195 3194 3194 3193 3193 3192 3192 3191 3191 3191 3190 3190 3189 3188 3188 3188 3187 3187 3186 3186 3185 3185 3184 3184 3183 3183 3183 3182 3181 3181 3180 3180 3179 3179 3178 3178 3178 3177 3176 3176
3201 3201 3201 3202 3202 3202 3202 3203 3203 3203 3203 3204 3204 3204 3204 3204 3204 3204 3204 3204 3204 3204 3204 3204 3204 3204 3204 3204 3204 3204 3204 3204 3204 3204 3204 3204 3204 3204 3203 3203 3203 3203 3203 3202 3202 3201 3201 3201 3200 3200 3200 3199 3199 3199 3199 3198 3198 3198 3197 3197 3196 3196 3195 3195 3194 3194 3193 3193 3193 3192 3192 3191 3191 3190 3190 3189 3189 3188 3188 3187 3187 3186 3186 3185 3185 3184 3184 3183 3183 3182 3182 3181 3181 3180 3180 3179 3179 3178 3178 3178 3177 3177 3176
3201 3202 3202 3202 3202 3203 3203 3203 3203 3203 3204 3204 3204 3204 3204 3205 3205 3205 3205 3205 3205 3205 3205 3205 3205 3205 3205 3205 3205 3205 3205 3205 3204 3204 3204 3204 3204 3204 3204 3204 3204 3203 3203 3203 3202 3202 3202 3201 3201 3200 3200 3199 3199 3199 3198 3198 3198 3198 3197 3197 3196 3196 3195 3195 3194 3194 3193 3193 3193 3192 3192 3191 3191 3190 3190 3189 3189 3188 3188 3187 3187 3186 3186 3185 3185 3184 3183 3183 3183 3182 3182 3181 3181 3180 3180 3179 3179 3178 3178 3177 3177 3176 3176
3202 3202 3202 3203 3203 3203 3203 3203 3204 3204 3204 3204 3205 3205 3205 3205 3205 3205 3205 3205 3205 3205 3205 3205 3205 3205 3205 3205 3205 3205 3205 3205 3205 3205 3205 3205 3205 3205 3204 3204 3204 3204 3203 3203 3203 3202 3202 3201 3201 3201 3200 3200 3199 3199 3198 3198 3198 3197 3197 3196 3196 3196 3195 3195 3194 3194 3193 3193 3193 3192 3191 3191 3190 3190 3189 3189 3188 3188 3188 3187 3187 3186 3185 3185 3184 3184 3183 3183 3182 3182 3181 3181 3180 3180 3179 3179 3178 3178 3178 3177 3177 3176 3176
3202 3203 3203 3203 3203 3203 3204 3204 3204 3204 3205 3205 3205 3205 3205 3205 3206 3206 3206 3206 3206 3206 3206 3206 3206 3206 3206 3206 3206 3206 3206 3205 3205 3205 3205 3205 3205 3205 3205 3205 3204 3204 3204 3203 3203 3203 3202 3202 3201 3201 3200 3200 3199 3199 3198 3198 3198 3197 3197 3196 3196 3195 3195 3194 3194 3193 3193 3193 3192 3192 3191 3191 3190 3190 3189 3189 3188 3188 3187 3187 3186 3186 3185 3184 3184 3183 3183 3183 3182 3181 3181 3180 3180 3179 3179 3178 3178 3178 3177 3177 3176 3176 3175
3203 3203 3203 3203 3203 3204 3204 3204 3205 3205 3205 3205 3205 3206 3206 3206 3206 3206 3206 3206 3206 3206 3206 3206 3206 3206 3206 3206 3206 3206 3206 3206 3205 3205 3205 3205 3205 3205 3205 3205 3204 3204 3204 3203 3203 3203 3202 3202 3201 3200 3200 3199 3199 3198 3198 3198 3197 3197 3196 3196 3196 3195 3195 3194 3194 3193 3193 3192 3192 3191 3191 3190 3190 3189 3189 3188 3188 3187 3187 3186 3186 3185 3185 3184 3183 3183 3183 3182 3182 3181 3180 3180 3179 3179 3178 3178 3178 3177 3177 3176 3176 3175 3175
3203 3203 3203 3204 3204 3204 3204 3205 3205 3205 3205 3206 3206 3206 3206 3206 3207 3207 3207 3207 3207 3207 3207 3207 3207 3207 3207 3206 3206 3206 3206 3206 3206 3205 3205 3205 3205 3205 3205 3205 3204 3204 3204 3203 3203 3203 3202 3202 3201 3200 3200 3199 3199 3198 3198 3198 3197 3197 3196 3196 3195 3195 3194 3194 3193 3193 3193 3192 3192 3191 3191 3190 3190 3189 3188 3188 3188 3187 3186 3186 3185 3185 3184 3184 3183 3183 3182 3182 3181 3180 3180 3179 3179 3178 3178 3178 3177 3177 3176 3176 3175 3175 3174
3203 3204 3204 3204 3204 3205 3205 3205 3205 3206 3206 3206 3206 3207 3207 3207 3207 3207 3207 3207 3207 3207 3207 3207 3207 3207 3207 3207 3206 3206 3206 3206 3206 3206 3205 3205 3205 3205 3204 3204 3204 3204 3204 3203 3203 3203 3202 3201 3201 3200 3200 3199 3198 3198 3198 3197 3197 3196 3196 3195 3195 3194 3194 3194 3193 3193 3192 3192 3191 3191 3190 3190 3189 3189 3188 3188 3187 3187 3186 3185 3185 3184 3184 3183 3183 3182 3182 3181 3181 3180 3179 3179 3178 3178 3178 3177 3177 3176 3176 3175 3175 3174 3174
3204 3204 3204 3204 3205 3205 3205 3206 3206 3206 3206 3207 3207 3207 3207 3207 3207 3207 3207 3207 3207 3207 3207 3207 3207 3207 3207 3207 3206 3206 3206 3206 3206 3206 3205 3205 3205 3205 3204 3204 3204 3204 3203 3203 3203 3202 3202 3201 3201 3200 3200 3199 3198 3198 3197 3197 3196 3196 3195 3195 3194 3194 3193 3193 3193 3192 3192 3191 3191 3190 3190 3189 3189 3188 3188 3187 3187 3186 3186 3185 3184 3184 3183 3183 3182 3182 3181 3180 3180 3179 3179 3178 3178 3177 3177 3176 3176 3175 3175 3174 3174 3173 3173
3204 3204 3205 3205 3205 3206 3206 3206 3207 3207 3207 3207 3207 3208 3208 3208 3208 3208 3208 3208 3208 3208 3207 3207 3207 3207 3207 3207 3207 3207 3206 3206 3206 3206 3205 3205 3205 3204 3204 3204 3203 3203 3203 3203 3202 3202 3201 3201 3200 3200 3199 3199 3198 3198 3197 3197 3196 3196 3195 3194 3194 3193 3193 3193 3192 3192 3191 3191 3190 3190 3189 3189 3188 3188 3187 3187 3186 3186 3185 3184 3184 3183 3183 3182 3182 3181 3180 3180 3179 3179 3178 3178 3177 3177 3176 3176 3175 3175 3174 3174 3173 3173 3173
3205 3205 3205 3205 3206 3206 3206 3207 3207 3207 3207 3208 3208 3208 3208 3208 3208 3208 3208 3208 3208 3208 3208 3208 3208 3207 3207 3207 3207 3207 3206 3206 3206 3206 3205 3205 3205 3204 3204 3203 3203 3203 3203 3202 3202 3201 3201 3200 3200 3199 3199 3198 3198 3198 3197 3197 3196 3195 3195 3194 3193 3193 3193 3192 3192 3191 3191 3190 3189 3189 3188 3188 3188 3187 3187 3186 3186 3185 3184 3184 3183 3183 3182 3182 3181 3181 3180 3179 3179 3178 3178 3177 3177 3176 3176 3175 3175 3174 3174 3173 3173 3173 3172
3205 3205 3205 3206 3206 3206 3207 3207 3207 3208 3208 3208 3208 3208 3208 3208 3208 3208 3208 3208 3208 3208 3208 3208 3208 3208 3207 3207 3207 3207 3206 3206 3206 3205 3205 3205 3204 3204 3204 3203 3203 3203 3203 3202 3202 3201 3200 3200 3200 3199 3199 3198 3198 3197 3197 3196 3196 3195 3195 3194 3193 3193 3192 3192 3191 3191 3190 3189 3189 3188 3188 3188 3187 3186 3186 3185 3185 3184 3184 3183 3183 3182 3182 3181 3181 3180 3179 3179 3178 3178 3177 3177 3176 3176 3175 3175 3174 3174 3173 3173 3173 3172 3172
3205 3205 3206 3206 3206 3207 3207 3207 3207 3208 3208 3208 3208 3208 3208 3208 3208 3208 3208 3208 3208 3208 3208 3208 3208 3208 3207 3207 3207 3207 3206 3206 3206 3205 3205 3204 3204 3204 3203 3203 3203 3203 3203 3202 3202 3201 3200 3200 3199 3199 3198 3198 3197 3197 3196 3196 3195 3195 3194 3194 3193 3193 3192 3191 3191 3190 3189 3189 3188 3188 3187 3187 3186 3186 3185 3185 3184 3184 3183 3183 3182 3182 3181 3181 3180 3179 3179 3178 3178 3177 3177 3176 3176 3175 3175 3174 3174 3173 3173 3173 3172 3172 3171
3205 3206 3206 3206 3207 3207 3207 3207 3207 3208 3208 3208 3208 3208 3208 3208 3208 3208 3208 3208 3208 3208 3208 3208 3207 3207 3207 3207 3207 3206 3206 3205 3205 3205 3204 3204 3203 3203 3203 3203 3202 3202 3202 3202 3201 3201 3200 3200 3199 3198 3198 3197 3197 3196 3196 3195 3195 3194 3193 3193 3193 3192 3192 3191 3190 3190 3189 3188 3188 3187 3187 3186 3186 3185 3184 3184 3183 3183 3183 3182 3182 3181 3180 3180 3179 3179 3178 3178 3177 3177 3176 3176 3175 3175 3174 3174 3173 3173 3173 3172 3172 3171 3171
3205 3206 3206 3206 3207 3207 3207 3207 3208 3208 3208 3208 3208 3208 3208 3208 3208 3208 3208 3208 3208 3208 3208 3207 3207 3207 3207 3206 3206 3206 3205 3205 3204 3204 3204 3203 3203 3203 3202 3202 3202 3201 3201 3201 3201 3200 3200 3199 3199 3198 3197 3197 3196 3196 3195 3195 3194 3193 3193 3192 3192 3191 3191 3190 3190 3189 3189 3188 3188 3187 3186 3186 3185 3184 3184 3183 3183 3182 3182 3181 3181 3180 3180 3179 3179 3178 3178 3177 3177 3176 3176 3175 3175 3174 3174 3173 3173 3173 3172 3172 3171 3171 3170
3206 3206 3206 3207 3207 3207 3207 3207 3207 3208 3208 3208 3208 3208 3208 3208 3208 3208 3208 3208 3208 3208 3207 3207 3207 3206 3206 3206 3205 3205 3204 3204 3204 3203 3203 3203 3202 3202 3202 3201 3201 3201 3200 3200 3200 3199 3199 3199 3198 3198 3197 3196 3196 3195 3194 3194 3193 3193 3192 3192 3191 3190 3190 3190 3189 3189 3188 3188 3187 3187 3186 3185 3185 3184 3183 3183 3182 3182 3181 3180 3180 3179 3179 3178 3178 3178 3177 3177 3176 3176 3175 3175 3174 3173 3173 3173 3172 3172 3171 3171 3170 3170 3169
3206 3206 3206 3207 3207 3207 3207 3207 3207 3208 3208 3208 3208 3208 3208 3208 3208 3208 3208 3208 3208 3207 3207 3207 3206 3206 3206 3205 3205 3204 3204 3203 3203 3203 3203 3202 3202 3201 3201 3201 3200 3200 3200 3199 3199 3198 3198 3198 3198 3197 3196 3196 3195 3194 3194 3193 3193 3192 3192 3191 3190 3190 3189 3189 3188 3188 3188 3187 3187 3186 3185 3185 3184 3184 3183 3183 3182 3181 3180 3180 3179 3179 3178 3178 3177 3177 3176 3176 3175 3175 3174 3174 3173 3173 3173 3172 3172 3171 3171 3170 3170 3169 3169
3206 3206 3206 3207 3207 3207 3207 3207 3207 3208 3208 3208 3208 3208 3208 3208 3208 3208 3208 3208 3208 3207 3207 3206 3206 3206 3205 3205 3204 3204 3203 3203 3203 3202 3202 3202 3201 3201 3200 3200 3200 3199 3199 3198 3198 3198 3198 3197 3197 3196 3196 3195 3194 3194 3193 3193 3192 3191 3191 3190 3189 3189 3188 3188 3188 3187 3187 3186 3186 3185 3184 3184 3183 3183 3183 3182 3181 3181 3180 3179 3178 3178 3178 3177 3177 3176 3176 3175 3175 3174 3174 3173 3173 3172 3172 3171 3171 3170 3170 3169 3169 3168 3168
3206 3206 3206 3206 3206 3207 3207 3207 3207 3207 3208 3208 3208 3208 3208 3208 3208 3208 3208 3207 3207 3207 3207 3206 3206 3205 3205 3204 3204 3203 3203 3203 3202 3202 3201 3201 3201 3200 3200 3199 3199 3198 3198 3198 3197 3197 3197 3196 3196 3196 3195 3194 3194 3193 3193 3192 3191 3191 3190 3189 3189 3188 3188 3187 3187 3186 3186 3185 3185 3184 3184 3183 3183 3182 3182 3181 3181 3180 3179 3178 3178 3178 3177 3176 3176 3175 3175 3174 3174 3173 3173 3173 3172 3171 3171 3170 3170 3169 3169 3168 3168 3167 3167
3205 3205 3206 3206 3206 3206 3207 3207 3207 3207 3207 3207 3207 3207 3207 3207 3207 3207 3207 3207 3207 3207 3206 3206 3206 3205 3205 3204 3204 3203 3203 3202 3202 3201 3201 3200 3200 3200 3199 3199 3198 3198 3198 3197 3197 3196 3196 3196 3195 3195 3194 3194 3193 3193 3192 3191 3191 3190 3189 3188 3188 3188 3187 3187 3186 3186 3185 3184 3184 3183 3183 3182 3182 3181 3181 3180 3180 3179 3179 3178 3177 3177 3176 3176 3175 3175 3174 3174 3173 3173 3172 3172 3171 3171 3170 3169 3169 3168 3168 3167 3167 3166 3166
3205 3205 3205 3206 3206 3206 3206 3207 3207 3207 3207 3207 3207 3207 3207 3207 3207 3207 3207 3207 3206 3206 3206 3206 3205 3205 3205 3204 3204 3203 3203 3202 3202 3201 3201 3200 3200 3199 3199 3198 3198 3198 3197 3197 3196 3196 3195 3195 3194 3194 3193 3193 3193 3192 3191 3191 3190 3189 3188 3188 3187 3187 3186 3186 3185 3185 3184 3184 3183 3183 3182 3182 3181 3180 3180 3179 3179 3179 3178 3177 3177 3176 3176 3175 3174 3174 3173 3173 3173 3172 3172 3171 3170 3170 3169 3168 3168 3167 3167 3166 3166 3165 3165
3205 3205 3205 3206 3206 3206 3206 3206 3206 3207 3207 3207 3207 3207 3207 3207 3207 3207 3206 3206 3206 3206 3206 3206 3205 3205 3205 3204 3204 3203 3203 3203 3202 3201 3201 3200 3200 3199 3199 3198 3198 3197 3196 3196 3195 3195 3194 3194 3193 3193 3193 3192 3192 3191 3191 3190 3189 3188 3188 3187 3186 3186 3185 3185 3184 3184 3183 3183 3183 3182 3181 3181 3180 3180 3179 3178 3178 3178 3177 3177 3176 3175 3175 3174 3174 3173 3173 3172 3172 3171 3171 3170 3169 3169 3168 3168 3167 3166 3166 3165 3165 3164 3164
3205 3205 3205 3206 3206 3206 3206 3206 3206 3206 3207 3207 3207 3207 3207 3207 3207 3206 3206 3206 3206 3206 3206 3205 3205 3205 3204 3204 3204 3203 3203 3203 3202 3202 3201 3201 3200 3199 3199 3198 3197 3197 3196 3195 3195 3194 3194 3193 3193 3192 3192 3191 3191 3190 3190 3189 3189 3188 3188 3187 3186 3185 3185 3184 3184 3183 3183 3182 3182 3181 3180 3180 3179 3179 3178 3178 3177 3177 3176 3176 3175 3175 3174 3173 3173 3173 3172 3171 3171 3170 3170 3169 3169 3168 3168 3167 3166 3166 3165 3164 3164 3163 3163
3205 3205 3205 3205 3206 3206 3206 3206 3206 3206 3206 3206 3207 3207 3207 3207 3206 3206 3206 3206 3206 3205 3205 3205 3205 3204 3204 3204 3203 3203 3203 3203 3202 3202 3201 3201 3200 3199 3199 3198 3197 3196 3196 3195 3194 3193 3193 3193 3192 3192 3191 3191 3190 3190 3189 3189 3188 3188 3187 3186 3186 3185 3184 3184 3183 3183 3182 3182 3181 3180 3180 3179 3178 3178 3177 3177 3176 3176 3175 3175 3174 3174 3173 3173 3172 3172 3171 3171 3170 3170 3169 3168 3168 3167 3167 3166 3165 3165 3164 3164 3163 3163 3162
3204 3205 3205 3205 3205 3206 3206 3206 3206 3206 3206 3206 3206 3206 3206 3206 3206 3206 3206 3206 3205 3205 3205 3204 3204 3204 3203 3203 3203 3203 3203 3202 3202 3201 3201 3200 3200 3199 3198 3197 3197 3196 3195 3194 3193 3193 3193 3192 3192 3191 3190 3190 3189 3189 3189 3188 3188 3187 3187 3186 3185 3184 3184 3183 3183 3182 3181 3181 3180 3179 3179 3178 3178 3177 3176 3176 3175 3175 3174 3174 3173 3173 3173 3172 3171 3171 3170 3170 3169 3169 3168 3168 3167 3167 3166 3165 3165 3164 3164 3163 3163 3162 3161
3204 3205 3205 3205 3205 3205 3206 3206 3206 3206 3206 3206 3206 3206 3206 3206 3206 3206 3206 3205 3205 3205 3205 3204 3204 3204 3203 3203 3203 3202 3202 3202 3201 3200 3200 3199 3198 3198 3197 3197 3196 3195 3194 3194 3193 3192 3192 3191 3191 3190 3190 3189 3189 3188 3188 3188 3187 3187 3186 3185 3185 3184 3183 3183 3182 3181 3181 3180 3179 3178 3178 3178 3177 3176 3176 3175 3174 3174 3173 3173 3173 3172 3172 3171 3171 3170 3170 3169 3169 3168 3168 3167 3167 3166 3165 3165 3164 3163 3163 3163 3162 3162 3161
3204 3204 3204 3205 3205 3205 3205 3205 3205 3206 3206 3206 3206 3206 3206 3205 3205 3205 3205 3205 3205 3205 3204 3204 3204 3204 3203 3203 3203 3202 3202 3201 3200 3200 3199 3198 3198 3197 3197 3196 3195 3195 3194 3193 3193 3192 3191 3190 3190 3189 3189 3188 3188 3188 3187 3187 3187 3186 3185 3185 3184 3183 3183 3182 3181 3180 3180 3179 3178 3178 3177 3177 3176 3175 3175 3174 3174 3173 3173 3172 3172 3171 3171 3170 3170 3169 3168 3168 3168 3168 3167 3167 3166 3165 3165 3164 3163 3163 3163 3162 3162 3161 3160
3204 3204 3204 3204 3205 3205 3205 3205 3205 3205 3205 3205 3205 3205 3205 3205 3205 3205 3205 3205 3205 3205 3204 3204 3204 3203 3203 3203 3202 3202 3201 3201 3200 3199 3199 3198 3198 3197 3196 3195 3195 3194 3193 3193 3192 3191 3190 3190 3189 3188 3188 3188 3187 3187 3186 3186 3186 3185 3184 3184 3183 3183 3182 3181 3180 3180 3179 3178 3178 3177 3176 3176 3175 3174 3174 3173 3173 3172 3172 3171 3171 3170 3170 3169 3168 3168 3168 3167 3167 3166 3166 3166 3165 3165 3164 3163 3163 3163 3162 3161 3161 3160 3159
3203 3203 3204 3204 3204 3204 3204 3204 3204 3204 3205 3205 3205 3205 3205 3205 3205 3204 3204 3204 3204 3204 3204 3204 3203 3203 3203 3202 3202 3201 3201 3200 3200 3199 3198 3198 3197 3196 3196 3195 3194 3193 3193 3192 3191 3190 3190 3189 3188 3188 3187 3187 3186 3186 3185 3185 3184 3184 3183 3183 3182 3182 3181 3180 3180 3179 3178 3177 3177 3176 3175 3175 3174 3173 3173 3173 3172 3172 3171 3170 3170 3169 3169 3168 3168 3167 3167 3166 3166 3165 3165 3165 3164 3164 3163 3163 3163 3162 3161 3161 3160 3159 3158
3203 3203 3203 3204 3204 3204 3204 3204 3204 3204 3204 3204 3205 3205 3205 3204 3204 3204 3204 3204 3204 3204 3203 3203 3203 3203 3202 3202 3201 3200 3200 3199 3199 3198 3198 3197 3197 3196 3195 3194 3193 3193 3192 3191 3191 3190 3189 3188 3188 3187 3187 3186 3185 3185 3184 3184 3183 3183 3182 3182 3181 3181 3180 3179 3178 3178 3177 3177 3176 3175 3174 3174 3173 3173 3172 3172 3171 3171 3170 3169 3169 3168 3168 3167 3167 3166 3166 3165 3165 3164 3164 3164 3163 3163 3163 3163 3162 3162 3161 3160 3159 3158 3158
3202 3202 3203 3203 3203 3204 3204 3204 3204 3203 3204 3204 3204 3204 3204 3204 3204 3204 3203 3203 3203 3203 3203 3202 3202 3202 3201 3201 3200 3200 3199 3198 3198 3198 3197 3197 3196 3195 3194 3194 3193 3192 3192 3191 3190 3189 3188 3188 3187 3186 3186 3185 3184 3184 3183 3183 3182 3182 3181 3181 3180 3179 3179 3178 3178 3177 3176 3176 3175 3174 3174 3173 3173 3172 3171 3171 3170 3170 3169 3168 3168 3167 3167 3166 3166 3165 3165 3164 3164 3163 3163 3163 3162 3162 3162 3161 3161 3161 3160 3159 3159 3158 3157
3201 3201 3202 3203 3203 3203 3203 3203 3203 3203 3203 3203 3203 3203 3203 3203 3203 3203 3203 3203 3202 3202 3202 3201 3201 3201 3200 3200 3199 3199 3198 3198 3197 3197 3196 3196 3195 3194 3194 3193 3193 3192 3191 3190 3189 3189 3188 3187 3187 3186 3185 3184 3184 3183 3183 3182 3181 3181 3180 3180 3179 3178 3178 3177 3176 3176 3175 3174 3174 3173 3173 3172 3172 3171 3170 3170 3169 3169 3168 3168 3167 3166 3166 3165 3165 3165 3165 3164 3163 3163 3162 3161 3161 3161 3160 3160 3160 3159 3159 3158 3158 3157 3156
3200 3201 3201 3202 3202 3203 3203 3203 3203 3203 3203 3203 3203 3203 3203 3202 3202 3202 3202 3202 3201 3201 3201 3200 3200 3200 3199 3199 3198 3198 3198 3197 3197 3196 3196 3195 3194 3194 3193 3193 3192 3191 3190 3190 3189 3188 3188 3187 3186 3185 3184 3184 3183 3183 3182 3181 3180 3180 3179 3179 3178 3178 3177 3176 3175 3174 3174 3173 3173 3173 3172 3171 3171 3170 3169 3169 3169 3168 3168 3167 3166 3166 3165 3164 3164 3163 3164 3163 3162 3162 3161 3160 3160 3160 3159 3159 3158 3158 3158 3157 3156 3156 3155
3199 3199 3200 3201 3201 3201 3202 3202 3202 3202 3202 3202 3202 3202 3201 3201 3201 3201 3201 3200 3200 3200 3200 3199 3199 3199 3198 3198 3198 3197 3197 3196 3196 3195 3195 3194 3193 3193 3192 3192 3191 3190 3190 3189 3188 3188 3187 3186 3185 3184 3183 3183 3182 3182 3181 3180 3179 3179 3178 3178 3177 3176 3176 3175 3174 3173 3173 3172 3172 3171 3171 3170 3170 3169 3168 3168 3168 3168 3167 3166 3165 3165 3164 3163 3163 3163 3162 3162 3162 3161 3160 3160 3159 3159 3158 3158 3157 3156 3156 3155 3155 3154 3153
3198 3198 3199 3199 3200 3200 3200 3200 3201 3201 3201 3200 3200 3200 3200 3200 3200 3200 3200 3199 3199 3199 3199 3198 3198 3198 3198 3197 3197 3196 3196 3195 3195 3194 3194 3193 3193 3192 3191 3191 3190 3189 3189 3188 3188 3187 3186 3185 3184 3183 3183 3182 3181 3180 3180 3179 3178 3178 3177 3176 3176 3175 3174 3174 3173 3173 3172 3171 3171 3170 3170 3169 3169 3168 3168 3168 3167 3167 3166 3165 3165 3164 3163 3163 3162 3161 3161 3161 3160 3160 3159 3159 3159 3158 3158 3157 3156 3155 3154 3153 3153 3153 3152
3197 3197 3198 3198 3198 3199 3199 3199 3199 3199 3199 3199 3199 3199 3199 3199 3199 3199 3198 3198 3198 3198 3198 3198 3197 3197 3197 3196 3196 3196 3195 3194 3194 3193 3193 3192 3192 3191 3190 3190 3189 3189 3188 3187 3187 3186 3185 3184 3183 3182 3182 3181 3180 3179 3178 3178 3177 3177 3176 3175 3175 3174 3173 3173 3172 3172 3171 3170 3170 3169 3168 3168 3168 3167 3167 3166 3166 3165 3165 3164 3164 3163 3162 3162 3161 3160 3160 3159 3159 3158 3158 3158 3158 3157 3157 3156 3155 3154 3153 3152 3151 3151 3150
3195 3196 3196 3197 3197 3198 3198 3198 3198 3198 3198 3198 3198 3198 3198 3198 3198 3198 3198 3198 3197 3197 3197 3197 3196 3196 3196 3195 3195 3195 3194 3194 3193 3193 3192 3191 3191 3190 3189 3189 3188 3188 3187 3187 3186 3185 3184 3183 3182 3181 3180 3179 3179 3178 3177 3177 3176 3176 3175 3174 3174 3173 3173 3172 3171 3171 3170 3169 3169 3168 3168 3167 3166 3166 3166 3165 3165 3164 3164 3163 3163 3162 3161 3161 3160 3159 3159 3158 3158 3158 3157 3157 3156 3156 3155 3154 3154 3153 3152 3151 3150 3149 3149
3194 3194 3195 3196 3196 3196 3196 3197 3197 3197 3197 3197 3197 3197 3197 3197 3197 3197 3197 3196 3196 3196 3196 3195 3195 3195 3195 3194 3194 3193 3193 3193 3192 3192 3191 3191 3190 3189 3188 3188 3188 3187 3186 3185 3185 3184 3183 3182 3181 3180 3179 3178 3178 3177 3176 3176 3175 3175 3174 3174 3173 3172 3172 3171 3170 3170 3169 3169 3168 3167 3167 3166 3165 3165 3164 3164 3163 3163 3163 3162 3161 3161 3160 3160 3159 3158 3158 3158 3157 3157 3156 3156 3155 3155 3154 3153 3153 3152 3151 3150 3149 3148 3148
3193 3193 3194 3194 3194 3195 3195 3195 3195 3196 3196 3196 3196 3196 3196 3196 3195 3195 3195 3195 3195 3195 3195 3194 3194 3194 3193 3193 3193 3193 3192 3192 3191 3191 3190 3190 3189 3188 3188 3187 3187 3186 3185 3184 3183 3183 3182 3181 3180 3179 3178 3177 3177 3176 3175 3174 3174 3174 3173 3173 3172 3172 3171 3170 3169 3169 3168 3168 3167 3166 3166 3165 3164 3164 3163 3163 3163 3162 3161 3161 3160 3160 3159 3159 3158 3158 3157 3157 3156 3156 3155 3155 3154 3154 3153 3153 3152 3151 3150 3149 3148 3147 3146
3191 3192 3192 3193 3193 3193 3193 3194 3194 3194 3194 3194 3195 3195 3195 3194 3194 3194 3194 3194 3194 3194 3193 3193 3193 3193 3193 3192 3192 3191 3191 3191 3190 3190 3189 3189 3188 3188 3187 3186 3186 3185 3184 3183 3182 3182 3181 3180 3179 3178 3177 3176 3175 3175 3174 3173 3173 3173 3172 3172 3171 3170 3170 3169 3168 3168 3167 3167 3166 3165 3165 3164 3164 3163 3163 3162 3162 3161 3160 3160 3159 3158 3158 3158 3157 3157 3156 3156 3155 3155 3154 3154 3153 3153 3152 3151 3151 3150 3149 3148 3147 3146 3145
3190 3190 3191 3191 3192 3192 3192 3193 3193 3193 3193 3193 3193 3193 3193 3193 3193 3193 3193 3193 3193 3193 3193 3192 3192 3192 3191 3191 3190 3190 3190 3189 3189 3189 3188 3188 3187 3186 3186 3185 3185 3184 3183 3182 3181 3180 3179 3178 3178 3177 3176 3175 3174 3174 3173 3172 3172 3171 3171 3170 3170 3169 3168 3168 3167 3167 3166 3166 3165 3164 3164 3163 3163 3162 3162 3161 3160 3160 3159 3158 3158 3158 3157 3157 3156 3156 3155 3155 3155 3154 3154 3153 3153 3152 3151 3150 3149 3148 3148 3147 3146 3145 3144
3188 3189 3189 3189 3190 3190 3191 3191 3191 3192 3192 3192 3192 3192 3192 3192 3192 3192 3192 3192 3192 3192 3192 3191 3191 3190 3190 3190 3189 3189 3189 3188 3188 3188 3187 3187 3186 3185 3184 3184 3183 3183 3182 3181 3180 3179 3178 3178 3177 3176 3175 3174 3173 3173 3172 3171 3171 3170 3169 3169 3168 3168 3167 3167 3166 3166 3165 3165 3164 3163 3163 3162 3162 3161 3161 3160 3159 3158 3158 3158 3157 3157 3156 3156 3155 3155 3154 3154 3154 3153 3153 3152 3152 3151 3150 3149 3148 3148 3147 3146 3145 3144 3143
3186 3187 3187 3188 3188 3188 3189 3189 3190 3190 3190 3190 3190 3191 3191 3191 3191 3191 3191 3191 3191 3191 3191 3190 3190 3189 3189 3188 3188 3188 3188 3187 3187 3186 3186 3185 3184 3183 3183 3182 3182 3181 3180 3180 3179 3178 3177 3176 3176 3175 3174 3173 3173 3172 3171 3170 3169 3169 3168 3168 3167 3166 3166 3165 3165 3164 3164 3164 3163 3162 3162 3161 3161 3160 3159 3159 3158 3157 3157 3157 3156 3156 3155 3155 3154 3154 3153 3153 3153 3153 3152 3151 3151 3150 3149 3148 3147 3146 3146 3145 3144 3143 3142
3184 3185 3185 3186 3186 3187 3187 3188 3188 3188 3189 3189 3189 3189 3189 3189 3190 3190 3190 3190 3190 3190 3189 3189 3189 3188 3188 3188 3187 3187 3186 3186 3186 3185 3184 3184 3183 3182 3181 3181 3180 3179 3179 3178 3178 3177 3176 3175 3174 3174 3173 3172 3171 3171 3170 3169 3168 3168 3167 3166 3165 3165 3164 3164 3163 3163 3163 3163 3162 3161 3160 3160 3159 3159 3158 3158 3157 3156 3156 3156 3155 3155 3154 3154 3153 3153 3153 3152 3152 3152 3151 3150 3149 3149 3148 3147 3146 3145 3144 3143 3143 3142 3141
3182 3183 3183 3184 3184 3185 3185 3186 3186 3187 3187 3188 3188 3188 3188 3188 3188 3188 3189 3189 3189 3188 3188 3188 3188 3187 3187 3186 3186 3185 3185 3184 3184 3183 3183 3182 3181 3181 3180 3179 3179 3178 3178 3177 3176 3176 3175 3174 3173 3173 3172 3171 3170 3169 3168 3168 3167 3166 3166 3165 3164 3163 3163 3163 3162 3162 3162 3161 3161 3160 3159 3159 3158 3158 3157 3157 3156 3156 3155 3155 3154 3154 3153 3153 3153 3152 3152 3151 3151 3150 3150 3149 3148 3148 3147 3146 3145 3144 3143 3143 3142 3141 3139
3180 3181 3181 3182 3182 3183 3183 3184 3184 3185 3185 3186 3186 3186 3186 3187 3187 3187 3187 3187 3187 3187 3187 3187 3187 3186 3186 3185 3184 3184 3183 3183 3183 3182 3181 3181 3180 3179 3179 3178 3178 3177 3176 3176 3175 3175 3174 3173 3173 3172 3171 3170 3169 3168 3167 3167 3166 3165 3164 3163 3163 3162 3162 3161 3161 3161 3160 3160 3159 3159 3158 3158 3157 3157 3156 3156 3155 3155 3154 3154 3153 3153 3152 3152 3151 3151 3151 3150 3150 3149 3149 3148 3147 3146 3145 3145 3144 3143 3142 3141 3140 3139 3138
3178 3178 3179 3180 3180 3181 3181 3182 3183 3183 3184 3184 3184 3185 3185 3185 3185 3186 3186 3186 3186 3186 3186 3185 3185 3185 3184 3184 3183 3183 3182 3181 3181 3180 3180 3179 3179 3178 3177 3177 3176 3176 3175 3175 3174 3174 3173 3173 3172 3171 3170 3169 3168 3167 3166 3165 3165 3164 3163 3162 3162 3161 3160 3160 3159 3159 3159 3158 3158 3158 3157 3156 3156 3156 3155 3155 3154 3154 3153 3153 3152 3152 3151 3151 3150 3150 3149 3149 3148 3148 3148 3147 3146 3145 3144 3143 3143 3142 3141 3140 3139 3138 3137
3176 3177 3177 3178 3178 3179 3179 3180 3181 3181 3182 3183 3183 3183 3183 3183 3184 3184 3184 3184 3184 3184 3184 3184 3183 3183 3183 3183 3182 3182 3181 3180 3179 3179 3178 3178 3178 3177 3176 3175 3175 3174 3174 3173 3173 3173 3172 3171 3170 3169 3168 3168 3167 3166 3165 3164 3163 3163 3162 3161 3160 3159 3158 3158 3158 3158 3158 3157 3157 3156 3156 3155 3155 3154 3154 3154 3153 3153 3152 3152 3151 3151 3150 3150 3149 3148 3148 3148 3148 3147 3146 3146 3145 3144 3143 3142 3142 3141 3140 3139 3138 3137 3136
3174 3174 3175 3176 3176 3177 3178 3178 3179 3179 3180 3181 3181 3181 3182 3182 3183 3183 3183 3183 3183 3183 3183 3182 3182 3182 3182 3181 3181 3180 3180 3179 3178 3178 3177 3177 3176 3175 3174 3174 3173 3173 3172 3172 3171 3171 3170 3169 3168 3168 3167 3166 3165 3164 3163 3163 3162 3161 3161 3160 3159 3158 3157 3157 3156 3156 3156 3156 3155 3155 3155 3154 3154 3153 3153 3153 3152 3152 3151 3151 3150 3150 3149 3148 3148 3148 3147 3147 3146 3146 3145 3144 3144 3143 3142 3141 3140 3139 3138 3138 3137 3136 3135
3172 3172 3173 3173 3174 3175 3175 3176 3177 3178 3178 3179 3180 3180 3180 3181 3181 3182 3182 3182 3182 3181 3181 3181 3180 3180 3180 3180 3179 3179 3178 3178 3177 3176 3176 3175 3174 3174 3173 3172 3172 3171 3170 3170 3169 3169 3169 3168 3166 3166 3165 3164 3163 3163 3162 3161 3160 3160 3159 3158 3158 3157 3156 3155 3155 3155 3154 3154 3154 3154 3154 3153 3153 3152 3152 3151 3151 3151 3150 3150 3149 3148 3148 3148 3147 3146 3146 3146 3145 3145 3144 3143 3143 3142 3141 3140 3139 3138 3137 3136 3135 3134 3133
3170 3170 3171 3172 3172 3173 3173 3174 3175 3176 3177 3178 3178 3178 3179 3179 3180 3180 3180 3180 3180 3180 3179 3179 3179 3179 3178 3178 3178 3178 3177 3176 3175 3175 3174 3173 3173 3172 3172 3171 3170 3169 3168 3168 3167 3166 3166 3165 3164 3163 3163 3162 3161 3160 3160 3159 3159 3158 3157 3157 3156 3155 3154 3154 3153 3153 3153 3153 3153 3153 3153 3152 3151 3151 3150 3150 3150 3149 3149 3148 3148 3147 3147 3146 3146 3145 3145 3144 3144 3143 3143 3142 3141 3140 3140 3139 3138 3137 3136 3135 3134 3133 3132
3168 3168 3169 3170 3170 3171 3172 3173 3173 3174 3175 3176 3176 3177 3178 3178 3178 3178 3178 3178 3178 3178 3178 3178 3178 3177 3177 3177 3177 3176 3175 3175 3174 3173 3173 3172 3171 3171 3170 3169 3169 3168 3167 3166 3165 3164 3163 3163 3163 3162 3161 3160 3159 3158 3158 3158 3157 3156 3156 3155 3154 3153 3153 3152 3152 3152 3152 3152 3152 3152 3151 3151 3150 3149 3149 3148 3148 3148 3148 3147 3147 3146 3145 3145 3144 3144 3143 3143 3143 3142 3141 3141 3140 3139 3138 3138 3137 3136 3135 3134 3133 3132 3131
3166 3167 3167 3168 3169 3169 3170 3171 3172 3173 3173 3174 3175 3175 3176 3176 3177 3177 3177 3177 3177 3176 3176 3176 3176 3176 3175 3175 3175 3175 3174 3173 3173 3172 3171 3170 3170 3169 3168 3168 3168 3167 3165 3164 3164 3163 3162 3161 3161 3160 3159 3159 3158 3157 3157 3156 3156 3155 3154 3153 3153 3152 3151 3151 3151 3151 3151 3151 3151 3150 3150 3149 3148 3148 3147 3147 3147 3146 3146 3145 3145 3144 3144 3143 3143 3143 3142 3142 3141 3141 3140 3139 3138 3138 3137 3136 3136 3135 3134 3133 3132 3131 3130
3164 3165 3166 3166 3167 3168 3169 3170 3170 3171 3172 3173 3173 3174 3174 3174 3175 3175 3175 3175 3175 3175 3174 3174 3174 3174 3174 3173 3173 3173 3173 3172 3172 3171 3170 3169 3168 3168 3167 3166 3166 3165 3164 3163 3163 3162 3161 3160 3159 3158 3157 3157 3157 3156 3155 3154 3154 3153 3153 3151 3151 3150 3149 3149 3149 3149 3149 3149 3149 3149 3148 3148 3147 3147 3146 3145 3145 3145 3144 3144 3143 3143 3142 3142 3142 3141 3141 3140 3140 3139 3138 3138 3137 3137 3136 3135 3134 3133 3132 3131 3130 3129 3128
3163 3163 3164 3165 3166 3167 3168 3168 3169 3170 3171 3171 3172 3172 3173 3173 3173 3173 3173 3173 3173 3173 3173 3173 3172 3172 3172 3172 3172 3171 3171 3171 3170 3169 3168 3168 3167 3166 3165 3164 3164 3163 3162 3162 3161 3160 3159 3158 3158 3157 3156 3155 3155 3154 3154 3153 3152 3151 3151 3149 3149 3148 3147 3147 3147 3147 3147 3148 3148 3147 3147 3147 3146 3145 3145 3144 3144 3143 3143 3142 3142 3141 3141 3140 3140 3139 3139 3139 3138 3138 3137 3137 3136 3135 3134 3133 3133 3132 3131 3130 3129 3128 3127
3162 3162 3163 3164 3164 3165 3166 3167 3168 3168 3169 3170 3170 3170 3171 3171 3171 3171 3171 3171 3171 3171 3171 3171 3171 3171 3170 3170 3170 3169 3169 3169 3169 3168 3167 3166 3165 3165 3164 3163 3162 3161 3160 3159 3159 3158 3158 3157 3156 3156 3155 3154 3153 3153 3152 3151 3150 3149 3148 3148 3147 3147 3146 3145 3145 3145 3145 3145 3146 3146 3145 3145 3145 3144 3144 3143 3143 3142 3142 3141 3141 3140 3139 3139 3138 3138 3138 3137 3137 3136 3136 3135 3134 3133 3133 3132 3131 3130 3129 3128 3128 3127 3126
3160 3161 3162 3163 3163 3164 3165 3166 3166 3167 3168 3168 3168 3169 3169 3169 3170 3169 3169 3169 3169 3169 3169 3169 3169 3169 3168 3168 3168 3168 3168 3168 3167 3167 3166 3164 3164 3163 3162 3161 3160 3159 3158 3158 3157 3157 3156 3156 3155 3154 3154 3153 3152 3151 3151 3150 3149 3148 3147 3146 3145 3145 3144 3143 3143 3143 3143 3143 3143 3143 3144 3144 3143 3143 3143 3142 3141 3141 3140 3140 3139 3139 3138 3138 3137 3136 3136 3136 3135 3135 3134 3133 3133 3132 3131 3130 3129 3128 3128 3127 3126 3125 3124
3159 3160 3161 3162 3162 3163 3163 3164 3165 3165 3166 3166 3167 3167 3168 3168 3168 3168 3168 3168 3168 3167 3167 3167 3167 3167 3167 3167 3166 3166 3165 3165 3165 3165 3164 3163 3162 3161 3160 3159 3158 3157 3157 3156 3155 3155 3154 3154 3153 3153 3152 3151 3151 3151 3150 3149 3148 3146 3145 3144 3144 3143 3142 3142 3141 3141 3141 3141 3141 3141 3142 3142 3142 3142 3141 3141 3140 3139 3139 3138 3138 3137 3137 3136 3135 3135 3135 3134 3134 3133 3133 3132 3131 3130 3129 3128 3128 3127 3126 3125 3124 3123 3123